Location: Владивосток
(43.1151°N, 131.8856°E)
Time: 05:33:48
(UTC+10:00)

AO-27 - Visible Passes

Search period start: 30 June 2022 00:00
Search period end: 10 July 2022 00:00
Orbit: 785 x 797 km, 98.9° (Epoch: 29 June)

Date Brightness Start Highest point End Pass type
(mag) Time Alt. Az. Time Alt. Az. Time Alt. Az.
02 Jul 10.5 21:49:37 10° WSW 21:51:43 12° W 21:53:47 10° WNW visible
06 Jul 10.2 21:30:34 10° SW 21:34:06 18° W 21:37:40 10° NW visible
09 Jul 10.3 21:43:19 10° WSW 21:46:04 14° W 21:48:50 10° WNW visible
